TimeEDT,TemperatureF,Dew PointF,Humidity,Sea Level PressureIn,VisibilityMPH,Wind Direction,Wind SpeedMPH,Gust SpeedMPH,PrecipitationIn,Events,Conditions,WindDirDegrees,DateUTC
12:15 AM,37.0,31.8,81,30.05,10.0,SSW,3.5,-,N/A,,Clear,200,2013-10-28 04:15:00
12:35 AM,35.1,29.7,81,30.07,10.0,Calm,Calm,-,N/A,,Clear,0,2013-10-28 04:35:00
12:55 AM,35.4,30.7,83,30.08,10.0,Calm,Calm,-,N/A,,Clear,0,2013-10-28 04:55:00
1:14 AM,35.2,31.5,86,30.08,10.0,Calm,Calm,-,N/A,,Clear,0,2013-10-28 05:14:00
1:35 AM,33.1,29.7,87,30.08,10.0,Calm,Calm,-,N/A,,Clear,0,2013-10-28 05:35:00
1:54 AM,33.4,30.6,89,30.08,10.0,South,4.6,-,N/A,,Clear,190,2013-10-28 05:54:00
2:15 AM,34.5,31.6,89,30.08,10.0,South,5.8,-,N/A,,Clear,190,2013-10-28 06:15:00
2:35 AM,35.8,31.1,83,30.08,10.0,Calm,Calm,-,N/A,,Clear,0,2013-10-28 06:35:00
2:54 AM,34.5,31.1,87,30.09,10.0,SSW,4.6,-,N/A,,Clear,200,2013-10-28 06:54:00
3:15 AM,34.0,30.6,87,30.09,10.0,SSW,5.8,-,N/A,,Clear,200,2013-10-28 07:15:00
3:35 AM,34.9,30.7,85,30.10,10.0,Calm,Calm,-,N/A,,Clear,0,2013-10-28 07:35:00
3:54 AM,35.1,29.8,81,30.10,10.0,Calm,Calm,-,N/A,,Clear,0,2013-10-28 07:54:00
4:15 AM,33.8,30.0,86,30.10,10.0,Calm,Calm,-,N/A,,Clear,0,2013-10-28 08:15:00
4:35 AM,33.1,30.2,89,30.10,10.0,South,4.6,-,N/A,,Clear,180,2013-10-28 08:35:00
4:55 AM,33.4,30.4,89,30.11,10.0,SSW,4.6,-,N/A,,Clear,200,2013-10-28 08:55:00
5:15 AM,33.3,30.2,89,30.11,10.0,SSW,3.5,-,N/A,,Clear,200,2013-10-28 09:15:00
5:35 AM,34.2,30.9,88,30.11,10.0,Calm,Calm,-,N/A,,Clear,0,2013-10-28 09:35:00
5:55 AM,33.8,30.2,87,30.12,10.0,Calm,Calm,-,N/A,,Clear,0,2013-10-28 09:55:00
6:15 AM,32.2,29.3,89,30.14,10.0,Calm,Calm,-,N/A,,Clear,0,2013-10-28 10:15:00
6:35 AM,32.9,30.0,89,30.14,10.0,Calm,Calm,-,N/A,,Mostly Cloudy,0,2013-10-28 10:35:00
6:55 AM,33.4,30.2,88,30.15,10.0,Calm,Calm,-,N/A,,Overcast,0,2013-10-28 10:55:00
7:15 AM,33.4,30.6,89,30.15,10.0,Calm,Calm,-,N/A,,Overcast,0,2013-10-28 11:15:00
7:34 AM,34.3,31.8,90,30.16,10.0,Calm,Calm,-,N/A,,Overcast,0,2013-10-28 11:34:00
7:55 AM,35.2,32.0,88,30.17,10.0,Calm,Calm,-,N/A,,Overcast,0,2013-10-28 11:55:00
8:15 AM,36.0,32.0,86,30.18,10.0,Calm,Calm,-,N/A,,Overcast,0,2013-10-28 12:15:00
8:34 AM,36.3,32.0,84,30.19,10.0,Calm,Calm,-,N/A,,Overcast,0,2013-10-28 12:34:00
8:55 AM,35.2,32.0,88,30.21,10.0,Calm,Calm,-,N/A,,Overcast,0,2013-10-28 12:55:00
9:15 AM,36.0,32.9,89,30.22,10.0,Calm,Calm,-,N/A,,Mostly Cloudy,0,2013-10-28 13:15:00
9:35 AM,38.5,34.2,84,30.23,10.0,Calm,Calm,-,N/A,,Mostly Cloudy,0,2013-10-28 13:35:00
9:55 AM,40.1,34.2,79,30.24,10.0,Calm,Calm,-,N/A,,Clear,0,2013-10-28 13:55:00
10:15 AM,41.7,35.6,79,30.26,10.0,Calm,Calm,-,N/A,,Clear,0,2013-10-28 14:15:00
10:35 AM,43.5,36.1,75,30.26,10.0,ENE,9.2,-,N/A,,Scattered Clouds,60,2013-10-28 14:35:00
10:55 AM,45.7,36.9,71,30.27,10.0,ENE,12.7,-,N/A,,Scattered Clouds,60,2013-10-28 14:55:00
11:15 AM,46.8,37.2,69,30.27,10.0,East,8.1,-,N/A,,Scattered Clouds,80,2013-10-28 15:15:00
11:35 AM,48.4,37.8,67,30.27,10.0,East,9.2,-,N/A,,Clear,90,2013-10-28 15:35:00
11:55 AM,48.9,37.6,65,30.27,10.0,East,10.4,-,N/A,,Clear,80,2013-10-28 15:55:00
12:15 PM,50.2,37.9,63,30.28,10.0,East,9.2,-,N/A,,Clear,80,2013-10-28 16:15:00
12:35 PM,51.1,37.8,60,30.28,10.0,ENE,6.9,-,N/A,,Clear,70,2013-10-28 16:35:00
12:55 PM,51.6,37.8,59,30.28,10.0,ENE,4.6,-,N/A,,Clear,60,2013-10-28 16:55:00
1:15 PM,53.1,38.3,57,30.28,10.0,ENE,9.2,-,N/A,,Clear,70,2013-10-28 17:15:00
1:35 PM,53.6,38.3,56,30.28,10.0,East,6.9,-,N/A,,Clear,90,2013-10-28 17:35:00
1:54 PM,53.6,37.4,54,30.27,10.0,ESE,4.6,-,N/A,,Clear,110,2013-10-28 17:54:00
2:15 PM,54.5,37.8,53,30.27,10.0,NE,4.6,-,N/A,,Clear,50,2013-10-28 18:15:00
2:35 PM,54.7,37.2,52,30.27,10.0,ESE,4.6,-,N/A,,Clear,110,2013-10-28 18:35:00
2:55 PM,54.9,36.7,50,30.27,10.0,Calm,Calm,-,N/A,,Clear,0,2013-10-28 18:55:00
3:15 PM,55.0,36.7,50,30.26,10.0,Calm,Calm,-,N/A,,Clear,0,2013-10-28 19:15:00
3:34 PM,55.2,36.3,49,30.26,10.0,Calm,Calm,-,N/A,,Clear,0,2013-10-28 19:34:00
3:55 PM,55.4,36.3,49,30.26,10.0,Calm,Calm,-,N/A,,Clear,0,2013-10-28 19:55:00
4:15 PM,55.4,37.2,50,30.27,10.0,North,4.6,-,N/A,,Clear,360,2013-10-28 20:15:00
4:34 PM,54.7,37.9,53,30.27,10.0,NE,5.8,-,N/A,,Clear,40,2013-10-28 20:34:00
4:55 PM,54.7,37.4,52,30.27,10.0,NNE,5.8,-,N/A,,Clear,30,2013-10-28 20:55:00
5:15 PM,54.5,37.4,52,30.27,7.0,NE,5.8,-,N/A,,Clear,50,2013-10-28 21:15:00
5:34 PM,54.5,37.4,52,30.27,10.0,ENE,5.8,-,N/A,,Clear,60,2013-10-28 21:34:00
5:55 PM,53.8,37.0,53,30.27,10.0,ENE,6.9,-,N/A,,Clear,70,2013-10-28 21:55:00
6:15 PM,52.7,37.0,55,30.27,10.0,NE,4.6,-,N/A,,Clear,40,2013-10-28 22:15:00
6:34 PM,50.0,38.3,64,30.27,10.0,ENE,4.6,-,N/A,,Clear,70,2013-10-28 22:34:00
6:55 PM,49.5,37.9,65,30.28,10.0,NE,4.6,-,N/A,,Clear,50,2013-10-28 22:55:00
7:15 PM,48.9,37.9,66,30.29,10.0,NE,4.6,-,N/A,,Clear,40,2013-10-28 23:15:00
7:35 PM,48.0,38.1,69,30.30,10.0,NNE,4.6,-,N/A,,Clear,30,2013-10-28 23:35:00
7:55 PM,45.7,37.4,73,30.31,10.0,NNE,5.8,-,N/A,,Clear,20,2013-10-28 23:55:00
8:15 PM,44.4,36.5,74,30.32,10.0,NNE,9.2,-,N/A,,Clear,30,2013-10-29 00:15:00
8:35 PM,43.9,35.8,73,30.32,10.0,NE,9.2,-,N/A,,Clear,40,2013-10-29 00:35:00
8:54 PM,43.2,34.9,73,30.33,10.0,NE,8.1,-,N/A,,Clear,50,2013-10-29 00:54:00
9:15 PM,42.3,34.7,75,30.33,10.0,NE,8.1,-,N/A,,Clear,50,2013-10-29 01:15:00
9:35 PM,42.1,34.7,75,30.34,10.0,NE,6.9,-,N/A,,Clear,50,2013-10-29 01:35:00
9:55 PM,41.4,34.5,77,30.35,10.0,NE,8.1,-,N/A,,Clear,50,2013-10-29 01:55:00
10:15 PM,40.8,34.2,77,30.35,10.0,ENE,3.5,-,N/A,,Clear,60,2013-10-29 02:15:00
10:34 PM,39.9,34.2,80,30.36,10.0,ENE,4.6,-,N/A,,Clear,60,2013-10-29 02:34:00
10:55 PM,39.6,34.0,80,30.37,10.0,ENE,4.6,-,N/A,,Clear,60,2013-10-29 02:55:00
11:15 PM,39.4,34.0,81,30.37,10.0,NE,3.5,-,N/A,,Clear,50,2013-10-29 03:15:00
11:35 PM,39.2,33.8,81,30.37,10.0,NE,3.5,-,N/A,,Clear,50,2013-10-29 03:35:00
11:55 PM,38.5,34.0,84,30.36,10.0,NE,3.5,-,N/A,,Clear,40,2013-10-29 03:55:00